User: anonymous   Login
Location: Gollag?dem
(16.8053°N, 80.8024°E)
Time: 07:17:12
(UTC+00:00)
Language:

Intelsat 5-1 Rocket - Orbit

View from above orbital plane
View from above orbital plane
View from above satellite
View from above satellite

Ground track
Ground track

The orbit data is extracted from the following two-line orbital elements,

1 12497U 81050B   20299.32121982  .00003399  00000-0  30037-3 0  9997
2 12497  23.9525 182.6420 3529279 241.0030  79.2358  8.26223992  1975
Epoch (UTC): 25 October 2020 07:42:33
Eccentricity: 0.3529279
inclination: 23.9525°
perigee height: 310 km
apogee height: 7605 km
right ascension of ascending node: 182.6420°
argument of perigee: 241.0030°
revolutions per day: 8.26223992
mean anomaly at epoch: 79.2358°
orbit number at epoch: 197

The dashed part of the orbit path shows where the satellite is in the earth's shadow,  

DLR